Fort Greely, AK

5:54 PM AKST on February 21, 2017 (GMT -0900)
Allen Army Air Field

Weather History for PABI - March, 2014

Change the Weather History Date:

Saturday, March 29, 2014

  Actual Average Record
Temperature  
Mean Temperature 22 °F -  
Max Temperature 37 °F 25 °F 46 °F (2015)
Min Temperature 8 °F 4 °F -17 °F (2007)
Degree Days  
Heating Degree Days 42    
Moisture  
Dew Point 0 °F    
Average Humidity 34    
Maximum Humidity 59    
Minimum Humidity 10    
Precipitation  
Precipitation 0.00 in - - ()
Sea Level Pressure  
Sea Level Pressure 29.84 in    
Wind  
Wind Speed 9 mph (SSE)    
Max Wind Speed 17 mph    
Max Gust Speed 24 mph    
Visibility 10 miles    
Events      
Averages and records for this station are not official NWS values.
T = Trace of Precipitation, MM = Missing Value Source: NWS Daily Summary

Daily Weather History Graph

Daily Weather History Graph

Search for Another Location

Airport or City:

Trip Planner

Search our weather history database for the weather conditions in past years. The results will help you decide how hot, cold, wet, or windy it might be!

Date:

Astronomy

Mar. 29, 2014 Rise Set
Actual Time 7:11 AM AKDT 8:25 PM AKDT
Civil Twilight 6:22 AM AKDT 9:14 PM AKDT
Nautical Twilight 5:20 AM AKDT 10:17 PM AKDT
Astronomical Twilight 4:03 AM AKDT 11:36 PM AKDT
Moon 6:45 AM AKDT (3/29) 7:33 PM AKDT (3/29)
Length of Visible Light 14h 52m
Length of Day
13h 14m
Waning Crescent, 1% of the Moon is Illuminated
Mar 29
Waning Crescent
Mar 30
New
Apr 7
First Quarter
Apr 14
Full
Apr 21
Last Quarter

Hourly Weather History & Observations

Time (AKDT) Temp. Windchill Dew Point Humidity Pressure Visibility Wind Dir Wind Speed Gust Speed Precip Events Conditions
12:53 AM 25.0 °F 14.2 °F 1.0 °F 36% 29.79 in 10.0 mi ESE 11.5 mph - N/A   Clear
1:53 AM 16.0 °F 7.4 °F 3.0 °F 57% 29.81 in 10.0 mi SW 5.8 mph - N/A   Clear
2:53 AM 14.0 °F 5.1 °F 1.9 °F 59% 29.81 in 10.0 mi SSW 5.8 mph - N/A   Clear
3:53 AM 19.0 °F 8.2 °F -0.0 °F 43% 29.81 in 10.0 mi SSE 9.2 mph - N/A   Clear
4:53 AM 10.9 °F 0.2 °F -2.0 °F 56% 29.83 in 10.0 mi SSE 6.9 mph - N/A   Clear
5:53 AM 18.0 °F 5.4 °F -0.0 °F 45% 29.81 in 10.0 mi SE 11.5 mph - N/A   Clear
6:53 AM 19.0 °F 6.1 °F -0.9 °F 42% 29.81 in 10.0 mi ESE 12.7 mph - N/A   Partly Cloudy
7:53 AM 10.0 °F -0.9 °F -2.9 °F 56% 29.83 in 10.0 mi South 6.9 mph - N/A   Partly Cloudy
8:53 AM 15.1 °F 9.4 °F -0.9 °F 49% 29.83 in 10.0 mi SSW 3.5 mph - N/A   Partly Cloudy
9:53 AM 25.0 °F 12.6 °F -0.0 °F 34% 29.82 in 10.0 mi SE 15.0 mph 21.9 mph N/A   Partly Cloudy
10:53 AM 27.0 °F 14.3 °F -0.0 °F 31% 29.82 in 10.0 mi ESE 17.3 mph 24.2 mph N/A   Clear
11:53 AM 30.0 °F 20.5 °F -0.0 °F 28% 29.82 in 10.0 mi ESE 11.5 mph - N/A   Clear
12:53 PM 32.0 °F 24.2 °F -0.0 °F 26% 29.82 in 10.0 mi SE 9.2 mph - N/A   Clear
1:53 PM 34.0 °F 29.8 °F -0.9 °F 23% 29.84 in 10.0 mi Variable 4.6 mph - N/A   Clear
2:53 PM 35.1 °F 31.0 °F -2.0 °F 21% 29.83 in 10.0 mi SSE 4.6 mph - N/A   Clear
3:53 PM 36.0 °F 31.1 °F -0.9 °F 21% 29.83 in 10.0 mi East 5.8 mph - N/A   Clear
4:53 PM 36.0 °F 31.1 °F -2.0 °F 20% 29.84 in 10.0 mi Variable 5.8 mph - N/A   Clear
5:53 PM 37.0 °F 32.4 °F -0.9 °F 20% 29.83 in 10.0 mi East 5.8 mph - N/A   Clear
6:53 PM 36.0 °F - -0.0 °F 22% 29.84 in 10.0 mi Calm Calm - N/A   Clear
7:53 PM 33.1 °F 27.7 °F 3.0 °F 28% 29.87 in 10.0 mi WSW 5.8 mph - N/A   Clear
8:53 PM 30.0 °F 23.2 °F 3.9 °F 33% 29.88 in 10.0 mi West 6.9 mph - N/A   Clear
9:53 PM 28.9 °F 21.9 °F 3.0 °F 33% 29.89 in 10.0 mi WSW 6.9 mph - N/A   Clear
10:53 PM 25.0 °F 14.8 °F 3.9 °F 41% 29.91 in 10.0 mi WSW 10.4 mph - N/A   Clear
11:53 PM 23.0 °F 13.1 °F 5.0 °F 46% 29.92 in 10.0 mi SW 9.2 mph - N/A   Clear